Regional Weather Roundup
Issued by NWS

Home | Current Version | Previous Version | Text Only | Print | Product List | Glossary Off
Versions: 1 2 3 4 5 6 7 8 9 10 11 12 13 14 15 16 17 18 19 20 21 22 23 24 25 26 27 28 29 30 31 32 33 34 35 36 37 38 39 40 41 42 43 44 45 46 47 48 49 50

000
ASUS45 KBOU 301410
RWRCO

WEATHER ROUNDUP FOR COLORADO
NATIONAL WEATHER SERVICE DENVER/BOULDER CO
800 AM MDT THU JUL 30 2015

NOTE: "FAIR" INDICATES FEW OR NO CLOUDS BELOW 12000 FEET WITH NO
SIGNIFICANT WEATHER AND/OR OBSTRUCTIONS TO VISIBILITY.

COZ001>005-013-030-031-301500-
...NORTHWEST COLORADO...

CITY           SKY/WX    TMP DP  RH WIND       PRES   REMARKS
CRAIG          SUNNY     51  33  50 NW3       30.44R
HAYDEN         SUNNY     54  27  35 E12       30.45S
MEEKER         SUNNY     54  30  40 CALM      30.44R
MOUNT WERNER   NOT AVBL
STEAMBOAT SPGS SUNNY     49  32  51 CALM      30.48S
WALDEN         SUNNY     43  30  61 CALM      30.57R
$$

COZ006>008-011-301500-
...WEST CENTRAL VALLEYS...

CITY           SKY/WX    TMP DP  RH WIND       PRES   REMARKS
GRAND JUNCTION SUNNY     68  30  24 SE12      30.31R
MONTROSE       SUNNY     64  36  35 CALM      30.40R
EAGLE          NOT AVBL
RIFLE          SUNNY     59  33  37 CALM      30.39R
DELTA          SUNNY     66  35  32 NE7       30.37R HAZE
NUCLA          SUNNY     63  36  36 E8        30.44R
$$

COZ017>023-064>068-301500-
...SOUTHWEST COLORADO...

CITY           SKY/WX    TMP DP  RH WIND       PRES   REMARKS
DURANGO        MOSUNNY   58  47  66 N3        30.46R
CORTEZ         SUNNY     63  48  58 E5        30.41R
PAGOSA SPRINGS PTSUNNY   54  47  76 CALM      30.54R
TELLURIDE      SUNNY     55  37  50 CALM      30.62R
WOLF CREEK PAS NOT AVBL
$$

COZ009-010-012-014-032>034-037-058>063-301500-
...CENTRAL COLORADO...

CITY           SKY/WX    TMP DP  RH WIND       PRES   REMARKS
ASPEN          SUNNY     56  39  53 CALM      30.52R
BUENA VISTA    SUNNY     55  47  74 NW5       30.56R
COPPER MTN     SUNNY     54  21  28 W9        30.82R
BERTHOUD PASS  FAIR      46  36  66 N3        30.87R
COTTONWOOD PAS SUNNY     57  43  58 E5        30.66R
GUNNISON       SUNNY     52  39  62 CALM      30.58R
KREMMLING      MOSUNNY   46  32  57 CALM      30.57S
LEADVILLE      SUNNY     51  40  65 CALM      30.67R
MONARCH PASS   SUNNY     52  34  50 CALM      30.90R
SALIDA         SUNNY     58  48  68 CALM      30.61R
SUNLIGHT       SUNNY     59  30  33 CALM      30.75R
WILKERSON PASS MOSUNNY   54  36  50 NE8       30.78R
$$

COZ069>075-301500-
...SAN LUIS VALLEY/SANGRE DE CRISTO MOUNTAINS...

CITY           SKY/WX    TMP DP  RH WIND       PRES   REMARKS
ALAMOSA        CLOUDY    54  49  83 NW3       30.52R
LA VETA PASS   CLOUDY    54  46  76 MISG      30.67S
SAGUACHE       MOSUNNY   55  45  67 NW12      30.55R
$$

COZ035-036-038>040-301500-
...NORTHERN COLORADO FRONT RANGE...

CITY           SKY/WX    TMP DP  RH WIND       PRES   REMARKS
DENVER INTL AP MOSUNNY   68  49  50 W9        30.35R
DMNS CITY PARK   N/A     71  51  48 E1G9      30.37R
AURORA         MOSUNNY   67  51  56 W7        30.38R
FRONT RANGE AP MOSUNNY   66  50  55 W12       30.36R
ERIE MUNI ARPT SUNNY     65  50  57 CALM      30.35R
BOULDER MUN AP SUNNY     64  50  59 CALM      30.35R
CENTENNIAL     MOSUNNY   67  50  54 W5        30.39R
BROOMFIELD     MOSUNNY   64  50  59 CALM      30.38R
FORT COLLINS   SUNNY     64  52  63 N3        30.35R
LONGMONT       SUNNY     68  53  59 CALM      30.35S
$$

COZ041-046-047-076>085-087-088-301500-
...PIKES PEAK/PALMER DIVIDE AND SOUTHERN FOOTHILLS...

CITY           SKY/WX    TMP DP  RH WIND       PRES   REMARKS
COLO. SPRINGS  PTSUNNY   63  55  75 CALM      30.43R
A. F. ACADEMY  MOSUNNY   63  52  67 S3        30.44R
ELLICOTT       MOSUNNY  N/A N/A N/A SE5       30.41S
FALCON         MOSUNNY   62  56  81 W3        30.47R
FORT CARSON    MOSUNNY   64  54  71 N5        30.40R
LIMON          CLOUDY    62  62 100 S9        30.38S
MONUMENT HILL  NOT AVBL
TRINIDAD       CLOUDY    66  54  65 W9        30.41R
$$

COZ042>045-048>051-090-091-301500-
...NORTHEAST COLORADO...

CITY           SKY/WX    TMP DP  RH WIND       PRES   REMARKS
GREELEY ARPT   SUNNY     63  54  72 NE5       30.33R
AKRON          MOSUNNY   68  63  84 S13       30.32R
BURLINGTON     CLOUDY    68  64  87 S12       30.33R
WRAY           SUNNY     70  62  76 S8        30.29S
STERLING       SUNNY     66  61  82 SW5       30.29R
HOLYOKE        SUNNY     66  61  82 S8        30.29S
FORT MORGAN    SUNNY     66  58  76 SE6       30.32R
$$

COZ086-089-092>099-301500-
...SOUTHEAST COLORADO...

CITY           SKY/WX    TMP DP  RH WIND       PRES   REMARKS
PUEBLO         PTSUNNY   69  60  73 E5        30.33R
LA JUNTA       MOSUNNY   72  63  73 SW6       30.30S
LAMAR          SUNNY     73  65  75 S9        30.28S
SPRINGFIELD      N/A     67  65  93 SW6       30.33F
$$


USA.gov is the U.S. government's official web portal to all federal, state and local government web resources and services.